Terminal Aerodrome Forecast
Issued by NWS

Home | Current Version | Previous Version | Text Only | Print | Product List | Glossary On
Versions: 1 2 3 4 5 6 7 8 9 10 11 12 13 14 15 16 17 18 19
000
FTUS46 KHNX 250531 CCA
TAFBFL
TAF COR
KBFL 250531Z 2506/2606 33009KT 2SM BR VCSH BKN030 OVC045
     FM250900 32013KT 5SM BR OVC040
     FM251200 32009KT P6SM BKN040
     FM260200 VRB03KT P6SM BKN040=

USA.gov is the U.S. government's official web portal to all federal, state and local government web resources and services.